Погода в Большом Атмасе

Россия / Омская область     54°03′56″N   74°56′12″E
темп.,
°C
ветер,
м/с
пор.,
м/с
влажн.,
%
обл.,
%
осадки,
мм/ч
давл.,
гПа
погр.,
м
8 марта, пн
пн800:00+1ю91690100 0.2 1009741
03:00+1ююз81587100 0.0 1008769
06:00−1ю91689100 0.0 1005595
09:00−2юз81589100 0.1 1003614
12:00−4зсз81195100 1.5 1005585
15:00−7зсз71087100 0.3 1009614
18:00−10з5119082 0.3 1015320
21:00−14зюз5109330 0.0 1018186
9 марта, вт
вт900:00−15юз499357 0.0 1020161
03:00−16юз5119223 0.0 1020243
06:00−16ююз5128914 0.0 1021264
09:00−14ююз6138939 0.0 1021356
12:00−11юз7128950 0.0 1021443
15:00−8ююз7128892 0.0 1020530
18:00−9ююз6128763 0.0 1018381
21:00−11ююз6128849 0.0 1018267
10 марта, ср
ср1000:00−12юз5118966 0.0 1017256
03:00−12юз489090 0.0 1017154
06:00−13ююз349095 0.0 101659
09:00−10ююв2390100 0.0 1014100
12:00−8юв4687100 0.0 1011270
15:00−7вюв5988100 0.3 1006428
18:00−7в5895100 4.9 1001407
21:00−7ссз339698 0.9 99965
11 марта, чт
чт1100:00−10з6129494 1.1 1002414
03:00−12зюз51195100 0.0 1005242
06:00−12юз5139393 0.1 1006279
09:00−8юз8139092 0.1 1008662
12:00−9юз8138679 0.1 1010650
15:00−8юз814809 0.0 1012956
18:00−8ююз7148449 0.0 1012889
21:00−9ююз6149098 0.2 1010546
12 марта, пт
пт1200:00−13зюз7158578 0.3 1011473
03:00−16зюз8158885 0.0 1013496
06:00−17зюз7159292 0.0 1015537
09:00−18з71393100 0.0 1018493
12:00−17з6108991 0.1 1021626
15:00−16зюз6887100 0.0 1023764
18:00−18зюз4794100 0.1 1024143
21:00−21зюз339849 0.0 102620